This is the latest recevied weather packets stored in our database for station/object WA2TQI. If no packets are shown the sender has not sent any weather packets the latest 1 day(s).
| Time | Temp. | Humidity | Pressure | Rain* | Wind** | Luminosity | Snow |
|---|---|---|---|---|---|---|---|
| 1778028084 | 21.67° C | 68% | 1011.5 hPa | 0 mm | 2.24 m/s, 158° | - | - |
| 1778027780 | 22.22° C | 67% | 1011.3 hPa | 0 mm | 3.13 m/s, 150° | - | - |
| 1778027476 | 22.22° C | 67% | 1011.3 hPa | 0 mm | 0.89 m/s, 165° | - | - |
| 1778027172 | 22.22° C | 66% | 1011.2 hPa | 0 mm | 1.79 m/s, 129° | - | - |
| 1778026868 | 22.78° C | 64% | 1011.2 hPa | 0 mm | 0.89 m/s, 162° | - | - |
| 1778026565 | 22.78° C | 62% | 1011.1 hPa | 0 mm | 0.45 m/s, 182° | - | - |
| 1778026262 | 23.33° C | 61% | 1011 hPa | 0 mm | 1.79 m/s, 123° | - | - |
| 1778025959 | 23.33° C | 59% | 1010.9 hPa | 0 mm | 1.79 m/s, 186° | - | - |
| 1778025656 | 23.89° C | 58% | 1011 hPa | 0 mm | 0 m/s | - | - |
| 1778025354 | 23.89° C | 57% | 1010.9 hPa | 0 mm | 1.79 m/s, 177° | - | - |
| 1778025051 | 24.44° C | 56% | 1010.8 hPa | 0 mm | 0.89 m/s, 228° | - | - |
| 1778024748 | 24.44° C | 55% | 1011 hPa | 0 mm | 2.68 m/s, 249° | - | - |
| 1778024445 | 24.44° C | 54% | 1010.9 hPa | 0 mm | 1.79 m/s, 175° | - | - |
| 1778024142 | 25° C | 53% | 1010.8 hPa | 0 mm | 3.13 m/s, 208° | - | - |
| 1778023840 | 25° C | 52% | 1010.6 hPa | 0 mm | 1.34 m/s, 130° | - | - |
| 1778023537 | 25.56° C | 50% | 1010.6 hPa | 0 mm | 1.34 m/s, 163° | - | - |
| 1778023235 | 25.56° C | 50% | 1010.4 hPa | 0 mm | 1.79 m/s, 109° | - | - |
| 1778022931 | 25.56° C | 50% | 1010.3 hPa | 0 mm | 0.45 m/s, 121° | - | - |
| 1778022630 | 25.56° C | 49% | 1010.5 hPa | 0 mm | 0.89 m/s, 210° | - | - |
| 1778022327 | 25.56° C | 50% | 1010.4 hPa | 0 mm | 1.79 m/s, 154° | - | - |
| 1778022024 | 26.11° C | 49% | 1010.3 hPa | 0 mm | 0.45 m/s, 52° | - | - |
| 1778021720 | 26.11° C | 49% | 1010.3 hPa | 0 mm | 1.79 m/s, 194° | - | - |
| 1778021416 | 26.11° C | 49% | 1010.4 hPa | 0 mm | 3.13 m/s, 189° | - | - |
| 1778021114 | 26.11° C | 49% | 1010.4 hPa | 0 mm | 1.79 m/s, 149° | - | - |
| 1778020811 | 26.11° C | 49% | 1010.4 hPa | 0 mm | 2.24 m/s, 201° | - | - |
* Rain latest hour (hover to see other rain measurements)
** Current wind speed in m/s (hover to see current wind gust speed)